sat.trackr.live / text

‹ back to catalog

STARLINK-36252

NORAD 68533 · 2026-068AB

PAYLOAD ACTIVE UNKNOWN

§ Identity

Operator
Country
US
Launch date
2026-03-30
Launch site
AFETR
Launch vehicle
Mass (kg)
RCS (m²)

Purposes: comms

External: N2YO · Heavens-Above · Gunter

§ Orbital elements

Epoch: 2026-05-25T03:05:34.437120Z

Period
93.85 min
Inclination
53.1588°
Eccentricity
0.0002731
Mean motion
15.34414764 rev/d
Perigee alt
460.8 km
Apogee alt
464.5 km
Semi-major
6,840.8 km
B*
9.3561e-4
RAAN
133.1057°
Arg perigee
136.4294°
Mean anomaly
223.6925°
Rev number
866

§ Raw data

STARLINK-362521 68533U 26068AB  26145.12887080  .00031384  00000+0  93561-3 0  99942 68533  53.1588 133.1057 0002731 136.4294 223.6925 15.34414764  8667

JSON: /api/v1/satellites/68533 · /tle

For live sub-satellite position, see the globe view (requires WebGL).

§ Visibility from observer

Set your observer location to see the next 7 days of passes ≥ 10°. The values pass through the URL so the page stays shareable.

No JS? Fill the form by hand. The geolocation button needs JavaScript.